Regional Weather Roundup
Issued by NWS

Home | Current Version | Previous Version | Text Only | Print | Product List | Glossary On
Versions: 1 2 3 4 5 6 7 8 9 10 11 12 13 14 15 16 17 18 19 20 21 22 23 24 25 26 27 28 29 30 31 32 33 34 35 36 37 38 39 40 41 42 43 44 45 46 47 48 49 50
000
ASUS43 KTOP 271159
RWRKS

WEATHER ROUNDUP FOR KANSAS
NATIONAL WEATHER SERVICE GOODLAND KS
700 AM CDT WED JUL 27 2016

NOTE:  "FAIR" INDICATES FEW OR NO CLOUDS BELOW 12,000 FEET WITH NO
SIGNIFICANT WEATHER AND/OR OBSTRUCTIONS TO VISIBILITY.

KSZ001>006-013>018-027>032-041>047-271300-
NORTHWEST KANSAS

CITY           SKY/WX    TMP DP  RH WIND       PRES   REMARKS
GOODLAND       CLEAR     61  58  90 SE7       30.11S
6HR MIN TEMP:  61; 6HR MAX TEMP:  71;

HAYS           CLOUDY    68  55  64 W8        30.03S
HILL CITY      CLOUDY    66  60  81 S7        30.03F
6HR MIN TEMP:  64; 6HR MAX TEMP:  79; 6HR PCP: TRACE;

RUSSELL        CLOUDY    69  63  81 S15       30.00F
6HR MIN TEMP:  69; 6HR MAX TEMP:  74;

$$

KSZ061>065-074>080-084>089-271300-
SOUTHWEST KANSAS

CITY           SKY/WX    TMP DP  RH WIND       PRES   REMARKS
DODGE CITY     CLOUDY    70  68  93 E8        30.07R
6HR MIN TEMP:  68; 6HR MAX TEMP:  71;

ELKHART          N/A     69  64  84 E3          N/A
GARDEN CITY    MOCLDY    71  67  87 NE16      30.05R
6HR MIN TEMP:  70; 6HR MAX TEMP:  73;

GREAT BEND     PTCLDY    73  64  73 W10       30.07R
LIBERAL        CLOUDY    72  64  78 CALM      30.08F
$$

KSZ066>073-081>083-090>101-271300-
SOUTHEAST KANSAS

CITY           SKY/WX    TMP DP  RH WIND       PRES   REMARKS
CHANUTE        PTCLDY    73  71  93 CALM      29.99S
6HR MIN TEMP:  72; 6HR MAX TEMP:  74;

COFFEYVILLE    CLOUDY    73  73 100 CALM      29.97F
6HR MIN TEMP:  71; 6HR MAX TEMP:  73;

HUTCHINSON     CLEAR     71  70  96 CALM      30.03S FOG
6HR MIN TEMP:  68; 6HR MAX TEMP:  74;

NEWTON         CLOUDY    71  70  96 CALM      30.05R
PARSONS        CLOUDY    74  72  93 CALM      29.99F
6HR MIN TEMP:  71; 6HR MAX TEMP:  74;

WICHITA INTL   MOCLDY    75  72  90 NE5       30.02R
6HR MIN TEMP:  74; 6HR MAX TEMP:  77;

WICHITA JABRA  CLEAR     70  70 100 N7        30.02R FOG
6HR MIN TEMP:  70; 6HR MAX TEMP:  74;

WINFIELD       CLOUDY    73  72  96 VRB3      30.00S FOG
6HR MIN TEMP:  73; 6HR MAX TEMP:  76;

$$

KSZ007>012-019>026-033>040-048>060-102>105-271300-
NORTHEAST KANSAS

CITY           SKY/WX    TMP DP  RH WIND       PRES   REMARKS
CONCORDIA      CLOUDY    72  66  81 SE12      29.93F
6HR MIN TEMP:  67; 6HR MAX TEMP:  72;

EMPORIA        CLOUDY    70  69  97 N3        30.01S
6HR MIN TEMP:  68; 6HR MAX TEMP:  73;

LAWRENCE       PTCLDY    67  66  97 CALM      29.99F
6HR MIN TEMP:  65; 6HR MAX TEMP:  70;

MANHATTAN      CLEAR     68  67  96 S6        29.97F
6HR MIN TEMP:  67; 6HR MAX TEMP:  72;

OLATHE IND     PTCLDY    69  67  93 N3        30.02R
6HR MIN TEMP:  68; 6HR MAX TEMP:  75;

SALINA         CLEAR     70  68  93 S7        30.00F
6HR MIN TEMP:  70; 6HR MAX TEMP:  76;

TOPEKA BILLARD CLEAR     68  65  90 CALM      30.00F
6HR MIN TEMP:  67; 6HR MAX TEMP:  72;

TOPEKA FORBES  CLEAR     71  68  90 CALM      30.00F
6HR MIN TEMP:  69; 6HR MAX TEMP:  73;

$$



USA.gov is the U.S. government's official web portal to all federal, state and local government web resources and services.